QPF
0.00 0.00 0.00 0.00 0.00 0.00 0.00 0.00 0.00 0.00 0.00 0.00 0.00 0.00 0.00 0.00 0.00 0.00 0.00 0.00 0.00 0.00 0.00 0.00 0.00 0.00 0.00 0.00 0.00 0.00 0.00 0.00 0.00 0.00 0.00 0.00 0.00 0.00 0.00 0.00 0.00 0.00 0.00 0.00 0.00 0.00 0.00 0.00 0.00
0.00 0.00 0.00 0.00 0.00 0.00 0.00 0.00 0.00 0.00 0.00 0.00 0.00 0.00 0.00 0.00 0.00 0.00 0.00 0.00 0.00 0.00 0.00 0.00 0.00 0.00 0.00 0.00 0.00 0.00 0.00 0.00 0.00 0.00 0.00 0.00 0.00 0.00 0.00 0.00 0.00 0.00 0.00 0.00 0.00 0.00 0.00 0.00 0.00
0.00 0.00 0.00 0.00 0.00 0.00 0.00 0.00 0.00 0.00 0.00 0.00 0.00 0.00 0.00 0.00 0.00 0.00 0.00 0.00 0.00 0.00 0.00 0.00 0.00 0.00 0.00 0.00 0.00 0.00 0.00 0.00 0.00 0.00 0.00 0.00 0.00 0.00 0.00 0.00 0.00 0.00 0.00 0.00 0.00 0.00 0.00 0.00 0.00
0.00 0.00 0.00 0.00 0.00 0.00 0.00 0.00 0.00 0.00 0.00 0.00 0.00 0.00 0.00 0.00 0.00 0.00 0.00 0.00 0.00 0.00 0.00 0.00 0.00 0.00 0.00 0.00 0.00 0.00 0.00 0.00 0.00 0.00 0.00 0.00 0.00 0.00 0.00 0.00 0.00 0.00 0.00 0.00 0.00 0.00 0.00 0.00 0.00
0.00 0.00 0.00 0.00 0.00 0.00 0.00 0.00 0.00 0.00 0.00 0.00 0.00 0.00 0.00 0.00 0.00 0.00 0.00 0.00 0.00 0.00 0.00 0.00 0.00 0.00 0.00 0.00 0.00 0.00 0.00 0.00 0.00 0.00 0.00 0.00 0.00 0.00 0.00 0.00 0.00 0.00 0.00 0.00 0.00 0.00 0.00 0.00 0.00
0.00 0.00 0.00 0.00 0.00 0.00 0.00 0.00 0.00 0.00 0.00 0.00 0.00 0.00 0.00 0.00 0.00 0.00 0.00 0.00 0.00 0.00 0.00 0.00 0.00 0.00 0.00 0.00 0.00 0.00 0.00 0.00 0.00 0.00 0.00 0.00 0.00 0.00 0.00 0.00 0.00 0.00 0.00 0.00 0.00 0.00 0.00 0.00 0.00
0.00 0.00 0.00 0.00 0.00 0.00 0.00 0.00 0.00 0.00 0.00 0.00 0.00 0.00 0.00 0.00 0.00 0.00 0.00 0.00 0.00 0.00 0.00 0.00 0.00 0.00 0.00 0.00 0.00 0.00 0.00 0.00 0.00 0.00 0.00 0.00 0.00 0.00 0.00 0.00 0.00 0.00 0.00 0.00 0.00 0.00 0.00 0.00 0.00
0.00 0.00 0.00 0.00 0.00 0.00 0.00 0.00 0.00 0.00 0.00 0.00 0.00 0.00 0.00 0.00 0.00 0.00 0.00 0.00 0.00 0.00 0.00 0.00 0.00 0.00 0.00 0.00 0.00 0.00 0.00 0.00 0.00 0.00 0.00 0.00 0.00 0.00 0.00 0.00 0.00 0.00 0.00 0.00 0.00 0.00 0.00 0.00 0.00
0.00 0.00 0.00 0.00 0.00 0.00 0.00 0.00 0.00 0.00 0.00 0.00 0.00 0.00 0.00 0.00 0.00 0.00 0.00 0.00 0.00 0.00 0.00 0.00 0.00 0.00 0.00 0.00 0.00 0.00 0.00 0.00 0.00 0.00 0.00 0.00 0.00 0.00 0.00 0.00 0.00 0.00 0.00 0.00 0.00 0.00 0.00 0.00 0.00
0.00 0.00 0.00 0.00 0.00 0.00 0.00 0.00 0.00 0.00 0.00 0.00 0.00 0.00 0.00 0.00 0.00 0.00 0.00 0.00 0.00 0.00 0.00 0.00 0.00 0.00 0.00 0.00 0.00 0.00 0.00 0.00 0.00 0.00 0.00 0.00 0.00 0.00 0.00 0.00 0.00 0.00 0.00 0.00 0.00 0.00 0.00 0.00 0.00
0.00 0.00 0.00 0.00 0.00 0.00 0.00 0.00 0.00 0.00 0.00 0.00 0.00 0.00 0.00 0.00 0.01 0.01 0.00 0.00 0.01 0.00 0.00 0.00 0.00 0.00 0.00 0.00 0.00 0.00 0.00 0.00 0.00 0.00 0.00 0.00 0.00 0.00 0.00 0.00 0.00 0.00 0.00 0.00 0.00 0.00 0.00 0.00 0.00
0.00 0.00 0.00 0.00 0.00 0.00 0.00 0.00 0.00 0.00 0.00 0.00 0.00 0.00 0.00 0.00 0.00 0.01 0.00 0.00 0.00 0.00 0.00 0.00 0.00 0.00 0.00 0.00 0.00 0.00 0.00 0.00 0.00 0.00 0.00 0.00 0.00 0.00 0.00 0.00 0.00 0.00 0.00 0.00 0.00 0.00 0.00 0.00 0.00
0.00 0.00 0.00 0.00 0.00 0.00 0.00 0.00 0.00 0.00 0.00 0.00 0.00 0.00 0.00 0.00 0.00 0.01 0.03 0.03 0.00 0.00 0.00 0.00 0.00 0.00 0.00 0.00 0.00 0.00 0.00 0.00 0.00 0.00 0.00 0.00 0.00 0.00 0.00 0.00 0.00 0.00 0.00 0.00 0.00 0.00 0.00 0.00 0.00
0.00 0.00 0.00 0.00 0.00 0.00 0.00 0.00 0.00 0.00 0.00 0.00 0.00 0.00 0.00 0.00 0.00 0.00 0.03 0.05 0.01 0.00 0.00 0.00 0.00 0.00 0.00 0.00 0.00 0.00 0.00 0.00 0.00 0.00 0.00 0.00 0.00 0.00 0.00 0.00 0.00 0.00 0.00 0.00 0.00 0.00 0.00 0.00 0.00
0.00 0.00 0.00 0.00 0.00 0.00 0.00 0.00 0.00 0.00 0.00 0.00 0.00 0.00 0.00 0.00 0.00 0.00 0.00 0.01 0.02 0.00 0.00 0.00 0.00 0.00 0.00 0.00 0.00 0.00 0.00 0.00 0.00 0.00 0.00 0.00 0.00 0.00 0.00 0.00 0.00 0.00 0.00 0.00 0.00 0.00 0.00 0.00 0.00
0.00 0.00 0.00 0.00 0.00 0.00 0.00 0.00 0.00 0.00 0.00 0.00 0.00 0.00 0.00 0.00 0.00 0.00 0.00 0.00 0.01 0.01 0.00 0.00 0.00 0.00 0.00 0.00 0.00 0.00 0.00 0.00 0.00 0.00 0.00 0.00 0.00 0.00 0.00 0.00 0.00 0.00 0.00 0.00 0.00 0.00 0.00 0.00 0.00
0.00 0.00 0.00 0.00 0.00 0.00 0.00 0.00 0.00 0.00 0.00 0.00 0.00 0.00 0.00 0.00 0.00 0.00 0.00 0.00 0.00 0.00 0.00 0.00 0.00 0.00 0.00 0.00 0.00 0.00 0.00 0.00 0.00 0.00 0.00 0.00 0.00 0.00 0.00 0.00 0.00 0.00 0.00 0.00 0.00 0.00 0.00 0.00 0.00
0.00 0.00 0.00 0.00 0.00 0.00 0.00 0.00 0.00 0.00 0.00 0.00 0.00 0.00 0.00 0.00 0.00 0.00 0.00 0.00 0.00 0.00 0.00 0.00 0.00 0.00 0.00 0.00 0.00 0.00 0.00 0.00 0.00 0.00 0.01 0.01 0.01 0.00 0.00 0.00 0.00 0.00 0.00 0.00 0.00 0.00 0.00 0.00 0.00
0.00 0.00 0.00 0.00 0.00 0.00 0.00 0.00 0.00 0.00 0.00 0.00 0.00 0.00 0.00 0.00 0.00 0.00 0.00 0.00 0.00 0.00 0.00 0.00 0.01 0.02 0.00 0.00 0.00 0.00 0.00 0.00 0.00 0.00 0.01 0.01 0.01 0.00 0.00 0.00 0.00 0.00 0.00 0.00 0.00 0.00 0.00 0.00 0.00
0.00 0.00 0.00 0.00 0.00 0.00 0.00 0.00 0.00 0.00 0.00 0.00 0.00 0.00 0.00 0.00 0.00 0.00 0.00 0.00 0.00 0.00 0.00 0.00 0.00 0.01 0.00 0.00 0.00 0.00 0.00 0.00 0.00 0.00 0.00 0.00 0.00 0.00 0.00 0.00 0.00 0.00 0.00 0.00 0.00 0.00 0.00 0.00 0.00
0.00 0.00 0.00 0.00 0.00 0.00 0.00 0.00 0.00 0.00 0.00 0.00 0.00 0.00 0.00 0.00 0.00 0.00 0.00 0.00 0.00 0.00 0.00 0.00 0.00 0.00 0.00 0.00 0.00 0.00 0.00 0.00 0.00 0.00 0.00 0.00 0.00 0.00 0.00 0.00 0.00 0.00 0.00 0.00 0.00 0.00 0.00 0.00 0.00
0.00 0.00 0.00 0.00 0.00 0.00 0.00 0.00 0.00 0.00 0.00 0.00 0.00 0.00 0.00 0.00 0.00 0.00 0.00 0.00 0.00 0.00 0.00 0.00 0.00 0.00 0.00 0.00 0.00 0.00 0.00 0.00 0.00 0.00 0.00 0.00 0.00 0.00 0.00 0.00 0.00 0.00 0.00 0.00 0.00 0.00 0.00 0.00 0.00
0.00 0.00 0.00 0.00 0.00 0.00 0.00 0.00 0.00 0.00 0.00 0.00 0.00 0.00 0.00 0.00 0.00 0.00 0.00 0.00 0.00 0.00 0.00 0.00 0.00 0.00 0.00 0.00 0.00 0.00 0.00 0.00 0.00 0.00 0.00 0.00 0.00 0.00 0.00 0.00 0.00 0.00 0.00 0.00 0.00 0.00 0.00 0.00 0.00
0.00 0.00 0.00 0.00 0.00 0.00 0.00 0.00 0.00 0.00 0.00 0.00 0.00 0.00 0.00 0.00 0.00 0.00 0.00 0.00 0.00 0.00 0.00 0.00 0.00 0.00 0.00 0.00 0.00 0.00 0.00 0.00 0.00 0.00 0.00 0.00 0.00 0.00 0.00 0.00 0.00 0.00 0.00 0.00 0.00 0.00 0.00 0.00 0.00
0.00 0.00 0.00 0.00 0.00 0.00 0.00 0.00 0.00 0.00 0.00 0.00 0.00 0.00 0.00 0.00 0.00 0.00 0.00 0.00 0.00 0.00 0.00 0.00 0.00 0.00 0.00 0.00 0.00 0.00 0.00 0.00 0.00 0.00 0.00 0.00 0.00 0.00 0.00 0.00 0.00 0.00 0.00 0.00 0.00 0.00 0.00 0.00 0.00
0.00 0.00 0.00 0.00 0.00 0.00 0.00 0.00 0.00 0.00 0.00 0.00 0.00 0.00 0.00 0.00 0.00 0.00 0.00 0.00 0.00 0.00 0.00 0.00 0.00 0.00 0.00 0.00 0.00 0.00 0.00 0.00 0.00 0.00 0.00 0.00 0.00 0.00 0.00 0.00 0.00 0.00 0.00 0.00 0.00 0.00 0.00 0.00 0.00
0.00 0.00 0.00 0.00 0.00 0.00 0.00 0.00 0.00 0.00 0.00 0.00 0.00 0.00 0.00 0.00 0.00 0.00 0.00 0.00 0.00 0.00 0.00 0.00 0.00 0.00 0.00 0.00 0.00 0.00 0.00 0.00 0.00 0.00 0.00 0.00 0.00 0.00 0.00 0.00 0.00 0.00 0.00 0.00 0.00 0.00 0.01 0.00 0.00
0.00 0.00 0.00 0.00 0.00 0.00 0.00 0.00 0.00 0.00 0.00 0.00 0.00 0.00 0.00 0.00 0.00 0.00 0.00 0.00 0.00 0.00 0.00 0.00 0.00 0.00 0.00 0.00 0.00 0.00 0.00 0.00 0.00 0.00 0.00 0.00 0.00 0.00 0.00 0.00 0.00 0.00 0.00 0.00 0.00 0.01 0.00 0.00 0.00
0.00 0.00 0.00 0.00 0.00 0.00 0.00 0.00 0.00 0.00 0.00 0.00 0.00 0.00 0.00 0.00 0.00 0.00 0.00 0.00 0.00 0.00 0.00 0.00 0.00 0.00 0.00 0.00 0.00 0.00 0.00 0.00 0.00 0.00 0.00 0.00 0.00 0.00 0.00 0.00 0.00 0.00 0.00 0.00 0.01 0.00 0.00 0.00 0.00
0.00 0.00 0.00 0.00 0.00 0.00 0.00 0.00 0.00 0.00 0.00 0.00 0.00 0.00 0.00 0.00 0.00 0.00 0.00 0.00 0.00 0.00 0.00 0.00 0.00 0.00 0.00 0.00 0.00 0.00 0.00 0.00 0.00 0.00 0.00 0.00 0.00 0.00 0.00 0.00 0.00 0.00 0.00 0.00 0.00 0.00 0.00 0.00 0.00
MSLP
1011.01 1010.67 1011.11 1010.34 1010.54 1009.89 1009.02 1008.79 1008.61 1007.71 1007.05 1006.64 1006.29 1006.12 1005.52 1004.84 1004.06 1003.60 1003.98 1004.50 1005.22 1005.43 1006.77 1007.92 1008.67 1009.00 1009.31 1009.64 1009.88 1010.34 1010.71 1011.08 1011.36 1011.77 1012.07 1012.50 1012.69 1012.96 1013.36 1013.80 1014.16 1014.34 1014.62 1014.88 1015.16 1015.34 1015.50 1015.55 1015.81
1010.90 1010.69 1010.91 1010.54 1010.15 1009.35 1008.88 1008.65 1008.09 1007.55 1007.03 1006.72 1006.07 1005.79 1005.60 1004.29 1004.31 1003.35 1003.63 1004.70 1005.11 1005.54 1006.41 1007.68 1008.56 1009.13 1009.26 1009.50 1009.77 1010.19 1010.57 1011.06 1011.47 1011.85 1012.05 1012.41 1012.98 1013.29 1013.62 1013.92 1014.22 1014.42 1014.64 1014.76 1015.10 1015.30 1015.56 1015.74 1015.94
1010.85 1010.58 1010.85 1010.43 1009.98 1009.39 1008.77 1008.36 1007.98 1007.66 1007.34 1006.90 1006.36 1005.84 1005.30 1004.50 1004.23 1003.74 1004.21 1004.50 1005.01 1005.75 1006.32 1007.39 1008.52 1009.23 1009.41 1009.55 1009.68 1010.03 1010.27 1010.76 1011.27 1011.79 1012.17 1012.62 1012.79 1013.36 1013.56 1013.88 1014.15 1014.43 1014.58 1014.66 1014.73 1014.94 1015.21 1015.54 1015.91
1010.52 1010.63 1011.44 1010.77 1009.77 1009.83 1009.13 1008.40 1008.10 1007.71 1007.05 1006.85 1006.43 1005.76 1005.25 1005.63 1005.21 1004.90 1004.82 1005.05 1004.96 1005.86 1006.36 1007.48 1008.59 1009.32 1009.78 1009.88 1009.78 1009.96 1010.27 1010.67 1011.04 1011.50 1011.89 1012.41 1012.93 1013.33 1013.74 1014.02 1014.24 1014.43 1014.58 1014.77 1014.87 1015.14 1015.30 1015.50 1015.71
1010.53 1010.57 1010.33 1010.21 1009.83 1009.78 1009.11 1008.48 1008.07 1007.35 1007.25 1006.46 1006.41 1005.68 1005.44 1005.21 1005.14 1004.89 1004.43 1004.86 1004.80 1005.89 1006.62 1007.52 1008.45 1009.27 1009.84 1010.25 1010.27 1010.26 1010.32 1010.58 1010.95 1011.43 1011.84 1012.26 1012.71 1013.19 1013.64 1014.00 1014.19 1014.44 1014.65 1015.01 1015.13 1015.33 1015.37 1015.50 1015.66
1010.33 1010.41 1010.00 1009.53 1009.63 1009.30 1008.65 1008.17 1007.97 1007.45 1006.99 1006.51 1006.13 1005.94 1005.42 1005.50 1004.97 1004.99 1004.74 1004.79 1005.21 1005.14 1006.33 1007.24 1008.20 1008.93 1009.53 1010.05 1010.33 1010.57 1010.61 1010.65 1010.96 1011.36 1011.75 1012.17 1012.54 1012.98 1013.41 1013.82 1014.09 1014.32 1014.56 1014.70 1014.97 1015.26 1015.51 1015.61 1015.78
1009.70 1009.88 1009.26 1009.23 1009.19 1008.65 1008.13 1008.04 1007.80 1007.28 1006.81 1006.37 1006.36 1005.82 1005.53 1005.38 1005.77 1005.57 1005.34 1005.44 1005.66 1005.80 1006.25 1007.21 1008.03 1008.81 1009.50 1009.92 1010.39 1010.65 1011.02 1010.94 1011.10 1011.52 1011.75 1012.00 1012.42 1012.80 1013.34 1013.76 1014.13 1014.23 1014.43 1014.53 1014.73 1015.07 1015.44 1015.75 1015.89
1009.58 1009.71 1008.99 1008.97 1008.60 1007.91 1007.88 1007.76 1007.66 1007.20 1006.72 1006.71 1006.44 1006.04 1005.92 1005.91 1006.24 1005.98 1006.10 1006.19 1006.23 1006.36 1006.35 1007.11 1007.67 1008.47 1009.11 1009.67 1010.29 1010.61 1011.13 1011.27 1011.38 1011.71 1012.07 1012.18 1012.60 1013.00 1013.45 1013.84 1014.20 1014.29 1014.53 1014.60 1014.60 1014.98 1015.03 1015.43 1015.79
1010.12 1009.45 1008.45 1008.38 1008.29 1007.68 1007.67 1007.62 1007.48 1007.20 1007.09 1006.86 1006.56 1006.58 1006.59 1006.28 1006.54 1006.22 1006.17 1006.35 1006.63 1006.84 1006.76 1007.07 1007.59 1008.17 1008.69 1009.22 1009.92 1010.58 1011.11 1011.44 1011.66 1011.98 1012.49 1012.77 1012.81 1013.06 1013.45 1013.79 1014.12 1014.32 1014.47 1014.69 1014.78 1015.14 1015.09 1015.26 1015.60
1010.00 1008.94 1008.40 1008.34 1007.78 1007.19 1007.30 1007.49 1007.57 1007.44 1007.09 1006.71 1006.46 1006.51 1006.44 1006.19 1006.15 1006.17 1006.04 1005.96 1006.26 1006.61 1006.73 1007.10 1007.45 1007.99 1008.53 1009.04 1009.59 1010.02 1010.59 1011.02 1011.57 1011.87 1012.29 1012.63 1012.86 1013.04 1013.14 1013.50 1014.16 1014.36 1014.59 1014.82 1014.86 1015.14 1015.18 1015.35 1014.99
1009.98 1009.36 1008.92 1008.27 1008.00 1007.78 1007.17 1007.50 1007.51 1007.53 1006.89 1006.67 1006.47 1006.19 1005.85 1005.81 1005.91 1005.84 1005.55 1005.54 1005.70 1006.41 1006.70 1007.19 1007.58 1007.87 1008.29 1008.60 1009.22 1009.80 1010.16 1010.58 1011.17 1011.74 1012.06 1012.45 1012.92 1013.16 1013.10 1013.19 1013.47 1013.78 1014.26 1014.29 1014.47 1014.80 1014.83 1014.63 1014.66
1009.97 1009.97 1009.80 1008.72 1008.33 1008.09 1007.73 1007.95 1007.58 1007.62 1007.16 1007.05 1006.59 1006.54 1006.07 1005.66 1005.36 1005.58 1005.60 1005.25 1005.57 1006.19 1006.22 1007.03 1007.51 1007.90 1008.18 1008.45 1009.06 1009.43 1009.82 1010.13 1010.51 1011.08 1011.72 1011.84 1012.57 1012.83 1012.53 1012.63 1012.96 1013.30 1013.37 1013.58 1014.01 1014.06 1014.25 1014.48 1014.44
1010.09 1010.08 1009.96 1009.61 1008.72 1008.41 1008.30 1007.64 1007.34 1007.34 1007.39 1006.90 1006.51 1006.20 1005.80 1005.48 1005.28 1005.35 1005.55 1005.26 1005.57 1005.49 1005.76 1006.31 1007.29 1007.75 1008.16 1008.66 1008.95 1009.13 1009.36 1009.72 1009.78 1010.25 1010.94 1011.10 1011.48 1012.01 1012.12 1012.16 1012.26 1012.61 1012.90 1013.26 1013.54 1013.68 1013.93 1014.13 1014.17
1010.58 1010.39 1010.10 1009.77 1009.02 1008.55 1008.30 1007.51 1008.00 1007.05 1006.85 1006.54 1006.39 1005.81 1005.40 1005.13 1004.99 1005.15 1005.40 1005.45 1005.80 1005.27 1005.43 1005.44 1006.59 1007.58 1007.68 1008.09 1008.67 1008.99 1008.98 1008.99 1009.68 1009.62 1010.07 1010.52 1010.74 1011.27 1011.39 1011.89 1012.11 1012.25 1012.57 1012.78 1013.22 1013.32 1013.59 1013.80 1013.69
1010.91 1010.49 1010.05 1009.69 1009.25 1008.66 1008.49 1007.66 1007.46 1007.51 1007.26 1006.55 1006.58 1005.83 1005.44 1005.05 1004.74 1004.73 1005.19 1005.44 1005.13 1005.09 1005.12 1005.30 1005.44 1006.25 1007.24 1007.38 1008.14 1008.71 1009.06 1009.16 1009.23 1009.16 1009.48 1010.17 1010.24 1010.58 1011.11 1011.37 1011.60 1011.95 1012.36 1012.61 1012.94 1013.13 1013.28 1013.41 1013.22
1010.98 1010.81 1009.99 1009.55 1009.19 1008.58 1008.80 1007.60 1007.84 1008.04 1007.64 1007.04 1006.60 1006.36 1005.58 1005.16 1005.16 1004.72 1004.80 1004.89 1004.57 1004.56 1004.39 1005.25 1005.15 1005.57 1006.05 1006.81 1007.39 1007.96 1008.55 1008.78 1008.86 1009.18 1009.28 1009.39 1009.86 1010.08 1010.28 1011.13 1011.31 1011.83 1012.49 1012.23 1012.33 1012.53 1012.81 1012.98 1012.68
1011.04 1010.43 1010.37 1009.73 1009.56 1009.00 1009.25 1008.56 1008.11 1008.47 1008.16 1007.45 1006.88 1006.68 1005.79 1005.28 1005.18 1004.95 1004.83 1004.72 1004.67 1004.59 1004.26 1004.20 1004.79 1005.13 1005.40 1006.24 1006.56 1007.27 1007.76 1007.95 1008.26 1008.36 1008.53 1009.30 1009.71 1010.02 1009.22 1010.02 1010.33 1010.52 1011.88 1012.06 1011.91 1012.01 1012.34 1012.32 1012.35
1010.79 1010.71 1010.60 1010.15 1009.83 1009.28 1008.96 1008.76 1008.55 1008.20 1008.14 1007.69 1006.96 1006.55 1006.32 1005.60 1005.07 1004.99 1005.04 1004.95 1004.98 1004.67 1004.49 1004.31 1004.46 1004.88 1005.00 1005.93 1006.65 1006.90 1007.50 1007.54 1007.72 1007.85 1007.42 1008.17 1009.11 1009.61 1010.00 1009.55 1009.46 1010.23 1011.17 1011.20 1011.49 1011.63 1011.91 1011.94 1011.81
1011.05 1010.88 1010.64 1010.49 1010.15 1009.75 1008.80 1008.41 1008.02 1007.66 1007.24 1006.81 1006.62 1006.41 1006.33 1005.92 1005.32 1004.83 1004.50 1004.46 1004.75 1004.75 1004.71 1004.62 1004.51 1004.84 1005.18 1005.79 1006.08 1006.00 1005.97 1006.37 1006.71 1007.10 1007.18 1007.55 1008.38 1008.43 1008.83 1009.54 1009.20 1009.88 1010.19 1010.51 1011.04 1011.09 1011.35 1011.38 1011.83
1011.09 1010.94 1010.81 1010.77 1010.59 1010.27 1008.87 1007.86 1007.48 1007.03 1006.44 1005.93 1005.72 1005.82 1005.80 1005.69 1005.32 1005.10 1004.83 1004.68 1004.20 1004.68 1004.70 1004.77 1004.68 1004.52 1004.63 1004.73 1004.80 1005.12 1005.42 1005.03 1005.39 1006.12 1006.40 1006.50 1007.21 1007.41 1008.01 1008.43 1007.96 1008.98 1009.52 1010.32 1010.30 1010.54 1010.62 1010.79 1011.20
1010.80 1010.78 1010.79 1010.88 1010.73 1010.15 1009.40 1007.31 1006.79 1006.10 1006.10 1005.86 1005.57 1005.49 1005.46 1005.54 1005.46 1005.38 1005.07 1004.90 1004.73 1004.39 1004.50 1004.54 1004.55 1004.39 1004.19 1004.31 1004.65 1004.58 1005.10 1005.20 1004.92 1004.90 1005.24 1005.49 1005.99 1006.48 1006.81 1007.08 1007.24 1008.19 1008.84 1009.01 1009.39 1009.65 1009.82 1009.86 1010.75
1010.34 1010.54 1010.70 1010.72 1010.56 1009.90 1009.98 1007.71 1006.79 1006.26 1005.79 1005.55 1005.31 1005.19 1005.08 1005.07 1005.19 1005.40 1005.47 1005.41 1005.12 1004.72 1004.56 1004.29 1004.12 1004.28 1004.19 1003.95 1003.93 1003.94 1003.76 1003.71 1003.38 1003.30 1003.80 1004.48 1005.07 1005.38 1005.73 1005.83 1006.61 1007.48 1007.69 1007.90 1008.40 1008.82 1009.10 1009.62 1009.82
1010.38 1010.71 1010.76 1010.76 1010.53 1010.43 1009.34 1008.73 1006.24 1006.12 1005.47 1005.15 1005.07 1004.90 1004.84 1004.81 1005.16 1005.36 1005.54 1005.46 1005.08 1004.88 1004.64 1004.25 1003.62 1003.41 1003.52 1003.85 1003.53 1003.43 1002.99 1002.77 1002.97 1003.02 1003.18 1003.60 1004.09 1004.47 1004.57 1005.16 1005.73 1006.18 1006.75 1007.06 1007.37 1008.09 1008.62 1008.92 1009.22
1010.90 1010.94 1010.93 1011.19 1010.90 1009.93 1009.19 1008.62 1004.79 1004.92 1004.73 1004.88 1004.59 1004.53 1004.53 1004.56 1004.99 1005.30 1005.49 1005.47 1005.05 1004.85 1004.47 1004.01 1003.60 1002.97 1002.56 1002.92 1002.66 1002.69 1002.62 1002.18 1002.36 1002.73 1002.74 1002.74 1003.05 1003.71 1003.90 1004.48 1004.94 1005.33 1005.90 1006.29 1006.78 1007.35 1008.04 1008.28 1008.64
1010.94 1011.11 1010.42 1010.23 1010.14 1009.38 1009.41 1008.32 1004.99 1004.92 1004.70 1004.47 1004.26 1004.10 1004.18 1004.66 1005.10 1005.23 1005.15 1005.11 1004.88 1004.42 1004.15 1003.93 1003.53 1002.95 1002.69 1002.60 1002.18 1001.74 1002.03 1001.95 1001.75 1001.72 1001.78 1002.06 1001.98 1002.56 1002.99 1003.75 1004.11 1004.41 1004.86 1005.45 1006.13 1006.93 1007.32 1007.73 1008.01
1010.75 1011.20 1011.14 1010.43 1009.97 1009.21 1009.14 1006.58 1004.30 1004.81 1004.78 1004.46 1004.44 1004.18 1004.33 1004.40 1004.93 1004.98 1004.84 1004.80 1004.61 1004.25 1003.80 1003.38 1003.12 1002.92 1002.81 1002.47 1001.78 1001.41 1001.55 1001.40 1000.90 1000.83 1001.09 1001.56 1001.45 1001.44 1002.20 1003.21 1003.65 1003.79 1004.18 1004.91 1005.80 1006.28 1006.71 1007.10 1007.54
1011.10 1011.22 1011.61 1011.26 1010.94 1010.09 1007.58 1005.79 1004.82 1004.16 1004.00 1003.83 1003.76 1003.99 1003.97 1004.23 1004.41 1004.61 1004.39 1004.14 1003.84 1003.65 1003.39 1003.05 1002.53 1002.08 1001.99 1001.88 1001.38 1000.93 1000.92 1000.76 1000.05 1000.11 1000.43 1000.65 1001.03 1001.22 1001.96 1002.53 1003.00 1003.16 1003.79 1004.64 1005.28 1005.63 1006.07 1006.67 1007.00
1010.60 1011.04 1011.76 1012.01 1011.04 1009.17 1006.63 1005.39 1003.92 1003.83 1003.57 1003.53 1003.45 1003.47 1003.78 1004.15 1003.90 1003.73 1003.74 1003.44 1003.22 1003.06 1002.77 1002.59 1002.33 1001.75 1001.42 1001.21 1000.87 1000.34 1000.01 999.80 999.44 999.62 999.58 999.80 1000.27 1000.65 1001.43 1001.86 1002.31 1002.86 1003.62 1004.23 1004.76 1005.25 1005.75 1006.20 1006.58
1010.87 1011.05 1011.72 1012.15 1011.80 1010.18 1007.58 1004.32 1004.04 1003.90 1003.91 1003.85 1003.73 1003.70 1003.88 1003.86 1003.72 1003.37 1002.82 1002.55 1002.41 1002.23 1002.01 1001.80 1001.55 1001.16 1000.83 1000.45 1000.06 999.80 999.21 998.94 998.85 998.81 999.08 999.40 999.58 1000.07 1000.66 1001.21 1001.85 1002.54 1003.16 1003.62 1004.29 1004.75 1005.19 1005.79 1006.44
1010.48 1010.89 1011.34 1011.54 1011.24 1010.45 1009.00 1004.22 1004.04 1004.01 1004.11 1004.44 1004.25 1004.15 1003.99 1003.87 1003.35 1003.08 1002.58 1001.86 1001.58 1001.50 1001.27 1000.94 1000.68 1000.39 1000.07 999.78 999.35 998.83 998.68 998.49 998.32 998.31 998.39 998.70 999.05 999.66 1000.10 1000.73 1001.43 1001.98 1002.52 1003.24 1003.84 1004.29 1004.86 1005.56 1006.03
Thickness
5750 5758 5758 5761 5742 5741 5742 5755 5759 5765 5772 5788 5796 5791 5795 5807 5811 5804 5855 5857 5856 5852 5844 5836 5832 5830 5827 5824 5822 5816 5812 5808 5805 5801 5798 5793 5792 5790 5786 5781 5776 5774 5771 5767 5762 5759 5756 5755 5750
5743 5749 5748 5741 5728 5731 5746 5756 5754 5765 5778 5787 5793 5791 5791 5804 5830 5846 5850 5853 5853 5850 5845 5836 5831 5827 5827 5825 5823 5818 5814 5809 5804 5801 5800 5796 5790 5787 5784 5781 5777 5774 5770 5768 5762 5759 5754 5752 5748
5736 5741 5729 5726 5721 5724 5739 5751 5756 5764 5773 5772 5778 5796 5800 5808 5831 5843 5850 5852 5852 5846 5844 5837 5829 5824 5823 5823 5823 5820 5818 5813 5807 5802 5799 5794 5794 5787 5786 5781 5777 5773 5770 5769 5767 5764 5759 5753 5746
5727 5726 5716 5708 5718 5718 5735 5749 5752 5754 5769 5772 5780 5779 5806 5813 5819 5835 5844 5846 5849 5841 5841 5834 5826 5820 5818 5818 5820 5820 5817 5814 5810 5805 5802 5797 5791 5787 5781 5778 5776 5772 5769 5765 5763 5760 5755 5750 5746
5719 5713 5700 5700 5707 5715 5731 5744 5747 5750 5752 5767 5775 5774 5787 5813 5830 5836 5842 5843 5845 5838 5835 5830 5824 5818 5814 5812 5813 5815 5816 5813 5810 5805 5800 5796 5791 5786 5781 5777 5774 5769 5766 5760 5758 5754 5752 5749 5745
5699 5701 5687 5695 5699 5709 5730 5741 5741 5745 5753 5762 5769 5770 5786 5812 5824 5830 5837 5839 5839 5841 5836 5828 5823 5818 5815 5812 5810 5810 5811 5811 5808 5804 5800 5795 5791 5786 5782 5777 5773 5769 5765 5761 5758 5753 5749 5746 5743
5691 5688 5688 5696 5692 5704 5726 5740 5736 5743 5750 5754 5768 5761 5782 5802 5812 5821 5828 5831 5831 5833 5832 5825 5820 5816 5812 5810 5807 5807 5804 5806 5805 5801 5798 5796 5791 5786 5779 5774 5769 5766 5763 5762 5759 5754 5748 5743 5739
5692 5686 5682 5689 5694 5701 5721 5731 5738 5741 5746 5761 5765 5753 5763 5791 5803 5811 5815 5818 5820 5823 5827 5823 5819 5815 5811 5808 5805 5804 5802 5802 5801 5797 5793 5792 5787 5782 5776 5770 5765 5763 5760 5759 5759 5753 5751 5744 5738
5683 5670 5676 5686 5691 5705 5720 5717 5733 5744 5740 5748 5756 5759 5772 5788 5793 5797 5803 5807 5807 5810 5814 5818 5816 5813 5810 5807 5804 5800 5798 5797 5796 5792 5787 5783 5781 5779 5773 5767 5763 5761 5759 5756 5754 5749 5748 5744 5737
5666 5669 5676 5690 5702 5708 5718 5717 5719 5723 5731 5737 5747 5759 5771 5782 5786 5787 5792 5799 5802 5804 5809 5812 5813 5810 5807 5804 5802 5801 5797 5795 5792 5789 5785 5781 5778 5775 5773 5768 5762 5759 5755 5752 5751 5746 5744 5740 5739
5659 5660 5671 5683 5696 5699 5710 5706 5712 5710 5717 5732 5733 5747 5763 5773 5778 5784 5793 5799 5803 5802 5803 5804 5806 5806 5804 5804 5800 5797 5795 5794 5791 5787 5785 5780 5775 5772 5772 5769 5765 5762 5756 5754 5752 5747 5743 5742 5739
5648 5653 5657 5677 5686 5687 5692 5695 5696 5700 5713 5726 5734 5740 5752 5761 5773 5776 5782 5792 5796 5795 5800 5797 5798 5798 5799 5798 5795 5794 5793 5793 5791 5788 5784 5783 5776 5772 5775 5771 5766 5762 5760 5757 5752 5750 5746 5741 5739
5642 5644 5651 5661 5673 5678 5681 5686 5691 5694 5706 5721 5728 5735 5743 5753 5763 5773 5775 5784 5783 5790 5796 5797 5793 5791 5791 5790 5791 5791 5792 5791 5792 5789 5784 5785 5782 5776 5775 5773 5770 5764 5761 5757 5752 5749 5744 5740 5737
5636 5637 5642 5651 5663 5669 5668 5682 5674 5695 5701 5707 5716 5726 5739 5746 5756 5764 5768 5771 5770 5784 5788 5796 5790 5784 5788 5787 5787 5787 5787 5789 5786 5789 5786 5785 5782 5777 5777 5772 5767 5764 5760 5757 5751 5748 5743 5738 5735
5628 5628 5635 5643 5651 5655 5661 5666 5668 5680 5681 5690 5700 5716 5727 5737 5748 5756 5760 5764 5772 5776 5784 5788 5792 5785 5782 5785 5783 5783 5781 5778 5783 5786 5785 5782 5780 5776 5772 5772 5767 5761 5757 5755 5750 5745 5740 5736 5735
5617 5619 5624 5637 5642 5652 5651 5654 5664 5664 5670 5681 5689 5697 5712 5727 5733 5746 5754 5761 5771 5774 5776 5777 5786 5787 5784 5781 5778 5780 5776 5776 5778 5778 5779 5781 5777 5775 5772 5767 5764 5757 5750 5751 5750 5744 5738 5733 5734
5609 5610 5612 5622 5631 5640 5637 5637 5655 5658 5660 5669 5680 5687 5703 5714 5725 5734 5744 5752 5759 5766 5774 5780 5780 5782 5782 5779 5781 5777 5771 5774 5775 5774 5775 5773 5769 5770 5777 5770 5768 5764 5750 5747 5747 5742 5736 5732 5729
5598 5601 5604 5609 5621 5629 5630 5632 5645 5653 5654 5660 5672 5679 5689 5703 5715 5726 5731 5738 5747 5757 5764 5768 5773 5773 5780 5775 5770 5768 5767 5771 5773 5775 5778 5777 5767 5767 5761 5763 5767 5757 5749 5749 5744 5739 5734 5729 5727
5594 5595 5597 5604 5614 5616 5626 5629 5640 5651 5655 5662 5668 5673 5676 5688 5706 5719 5729 5734 5738 5744 5750 5755 5762 5765 5767 5764 5762 5767 5769 5773 5773 5774 5776 5774 5771 5772 5767 5760 5760 5756 5753 5747 5742 5738 5729 5725 5721
5586 5586 5588 5594 5601 5602 5619 5627 5637 5645 5653 5663 5668 5671 5673 5678 5689 5702 5713 5720 5730 5732 5738 5743 5749 5756 5761 5765 5766 5767 5766 5775 5775 5773 5776 5780 5777 5774 5765 5759 5764 5757 5751 5743 5741 5734 5728 5724 5721
5583 5582 5581 5582 5588 5596 5600 5623 5630 5645 5646 5651 5659 5664 5669 5670 5674 5682 5692 5703 5713 5722 5726 5733 5738 5745 5754 5758 5756 5761 5760 5763 5769 5775 5778 5782 5781 5777 5772 5766 5763 5758 5751 5747 5741 5734 5728 5724 5717
5577 5585 5582 5581 5582 5584 5590 5599 5621 5630 5635 5639 5646 5652 5658 5664 5668 5668 5674 5681 5691 5702 5713 5720 5728 5733 5741 5749 5751 5753 5759 5761 5775 5780 5781 5781 5780 5778 5773 5771 5762 5756 5754 5749 5743 5736 5728 5722 5716
5576 5576 5576 5577 5577 5573 5591 5582 5618 5619 5622 5629 5634 5641 5648 5655 5655 5656 5659 5666 5676 5685 5695 5706 5718 5728 5732 5735 5743 5748 5755 5765 5770 5772 5774 5776 5777 5777 5776 5768 5763 5759 5753 5750 5744 5734 5725 5723 5716
5565 5565 5566 5559 5562 5569 5575 5575 5625 5616 5614 5614 5625 5629 5633 5639 5640 5641 5646 5650 5660 5670 5681 5692 5704 5715 5726 5728 5737 5741 5747 5757 5760 5762 5767 5772 5771 5769 5769 5765 5762 5757 5751 5747 5740 5733 5725 5721 5715
5556 5553 5555 5561 5563 5568 5564 5567 5608 5603 5605 5605 5609 5616 5620 5619 5618 5620 5627 5635 5645 5658 5666 5675 5687 5701 5712 5718 5726 5736 5740 5748 5752 5758 5764 5765 5768 5766 5764 5760 5757 5753 5752 5747 5738 5728 5724 5719 5714
5550 5547 5541 5536 5549 5564 5562 5571 5602 5597 5594 5594 5591 5597 5598 5600 5599 5603 5612 5621 5631 5642 5654 5664 5675 5688 5696 5707 5719 5728 5733 5741 5749 5755 5758 5758 5762 5764 5759 5753 5749 5750 5749 5743 5733 5727 5721 5717 5711
5537 5537 5540 5537 5540 5534 5567 5584 5594 5597 5592 5589 5586 5585 5583 5583 5581 5587 5599 5610 5622 5631 5641 5653 5666 5679 5687 5697 5709 5720 5726 5733 5746 5751 5752 5756 5757 5757 5752 5748 5745 5747 5742 5735 5728 5723 5718 5712 5708
5540 5542 5527 5524 5522 5537 5570 5572 5581 5583 5581 5581 5580 5578 5576 5572 5577 5581 5587 5599 5609 5617 5631 5641 5651 5666 5677 5688 5701 5714 5723 5731 5740 5745 5748 5751 5752 5752 5747 5745 5743 5739 5734 5729 5724 5718 5714 5708 5705
5529 5527 5522 5518 5518 5523 5540 5576 5578 5572 5568 5566 5567 5567 5561 5564 5566 5572 5582 5588 5596 5606 5617 5629 5642 5656 5667 5680 5694 5705 5719 5728 5733 5739 5742 5745 5748 5746 5744 5741 5737 5731 5728 5725 5719 5715 5711 5705 5698
5531 5525 5523 5514 5518 5522 5526 5563 5575 5565 5560 5550 5550 5551 5550 5550 5557 5561 5568 5579 5583 5588 5602 5618 5633 5648 5662 5673 5686 5701 5710 5719 5727 5732 5737 5741 5740 5741 5739 5736 5731 5727 5725 5720 5714 5710 5706 5699 5694